Location: Berg
(48.4333°N, 13.9167°E)
Time: 05:47:50
(UTC+00:00)

ATLAS CENTAUR R/B - Pass Details

Date: 20 January 2021
Orbit: 475 x 670 km, 64.7° (Epoch: 06 March)

Event Time Altitude Azimuth Distance (km) Brightness Sun altitude
Rises 05:47:27 0° 202° (SSW) 2,546 4.7 -9.8°
Reaches altitude 10° 05:49:39 10° 196° (SSW) 1,655 3.8 -9.4°
Maximum altitude 05:53:10 46° 123° (ESE) 652 2.3 -8.9°
Drops below altitude 10° 05:56:41 10° 49° (NE) 1,652 4.2 -8.3°
Sets 05:58:52 0° 43° (NE) 2,541 5.0 -8.0°
